Weather History for KHAO - March, 2013

Change the Weather History Date:

Sunday, March 31, 2013

  Actual Average (KCVG) Record (KCVG)
Temperature  
Mean Temperature 52 °F 49 °F  
Max Temperature 60 °F 59 °F 84 °F (1986)
Min Temperature 46 °F 39 °F 14 °F (1923)
Degree Days  
Heating Degree Days 12 16  
Month to date heating degree days 666  
Since 1 July heating degree days 4493  
Cooling Degree Days 0 0  
Month to date cooling degree days 0  
Year to date cooling degree days 0  
Growing Degree Days 2 (Base 50)    
Moisture  
Dew Point 44 °F    
Average Humidity 83    
Maximum Humidity 100    
Minimum Humidity 49    
Precipitation  
Precipitation 0.10 in 0.14 in 1.34 in (1996)
Month to date precipitation 3.96  
Year to date precipitation 9.77  
Snow  
Snow 0.00 in 0.00 in 1.20 in (1987)
Month to date snowfall 3.0  
Since 1 July snowfall 21.6  
Snow Depth -    
Sea Level Pressure  
Sea Level Pressure 29.84 in    
Wind  
Wind Speed 3 mph (WSW)    
Max Wind Speed 15 mph    
Max Gust Speed 23 mph    
Visibility 6 miles    
Events Rain    
T = Trace of Precipitation, MM = Missing Value Source: NWS Daily Summary

Daily Weather History Graph

Daily Weather History Graph

Search for Another Location

Airport or City:

Trip Planner

Search our weather history database for the weather conditions in past years. The results will help you decide how hot, cold, wet, or windy it might be!

Date:

Astronomy

Mar. 31, 2013 Rise Set
Actual Time 7:23 AM EDT 8:01 PM EDT
Civil Twilight 6:56 AM EDT 8:28 PM EDT
Nautical Twilight 6:24 AM EDT 9:00 PM EDT
Astronomical Twilight 5:52 AM EDT 9:33 PM EDT
Moon 12:04 AM EDT (3/31) 10:12 AM EDT (3/31)
Length of Visible Light 13h 31m
Length of Day
12h 37m
Waning Gibbous, 78% of the Moon is Illuminated
Mar 31
Waning Gibbous
Apr 3
Last Quarter
Apr 10
New
Apr 18
First Quarter
Apr 25
Full

Hourly Weather History & Observations

Time (EDT) Temp. Windchill Dew Point Humidity Pressure Visibility Wind Dir Wind Speed Gust Speed Precip Events Conditions
12:53 AM 48.9 °F - 35.1 °F 59% 29.94 in 10.0 mi SE 3.5 mph - N/A   Clear
1:53 AM 46.9 °F - 37.0 °F 68% 29.92 in 10.0 mi Calm Calm - N/A   Overcast
2:53 AM 48.0 °F - 37.9 °F 68% 29.90 in 10.0 mi Calm Calm - N/A   Overcast
3:53 AM 48.0 °F - 43.0 °F 83% 29.88 in 8.0 mi Calm Calm - 0.02 in Rain Light Rain
4:53 AM 46.0 °F - 44.1 °F 93% 29.86 in 5.0 mi Calm Calm - 0.03 in Rain Light Rain
5:53 AM 46.0 °F - 44.1 °F 93% 29.84 in 5.0 mi Calm Calm - 0.02 in Rain Light Rain
6:49 AM 46.4 °F - 44.6 °F 93% 29.83 in 2.5 mi Calm Calm - 0.00 in   Overcast
6:53 AM 46.0 °F - 44.1 °F 93% 29.83 in 2.5 mi Calm Calm - 0.00 in   Overcast
7:08 AM 46.4 °F - 44.6 °F 93% 29.83 in 5.0 mi Calm Calm - 0.00 in Rain Light Rain
7:38 AM 46.4 °F - 44.6 °F 93% 29.84 in 2.5 mi Calm Calm - 0.00 in   Overcast
7:50 AM 46.4 °F - 44.6 °F 93% 29.84 in 3.0 mi Calm Calm - 0.00 in Rain Light Rain
7:53 AM 46.0 °F - 45.0 °F 96% 29.85 in 2.5 mi Calm Calm - 0.00 in Rain Light Rain
8:07 AM 46.4 °F - 44.6 °F 93% 29.84 in 1.8 mi Calm Calm - 0.00 in Rain Light Rain
8:27 AM 46.4 °F - 44.6 °F 93% 29.85 in 2.0 mi Calm Calm - 0.01 in   Overcast
8:53 AM 46.0 °F 43.1 °F 44.1 °F 93% 29.85 in 2.5 mi WNW 5.8 mph - 0.01 in Rain Light Rain
8:59 AM 46.4 °F 42.4 °F 44.6 °F 93% 29.85 in 3.0 mi WNW 8.1 mph - 0.00 in Rain Light Rain
9:10 AM 46.4 °F 42.9 °F 44.6 °F 93% 29.84 in 2.0 mi WNW 6.9 mph - 0.01 in Rain Light Rain
9:18 AM 46.4 °F 44.3 °F 44.6 °F 93% 29.84 in 2.5 mi WNW 4.6 mph - 0.01 in Rain Light Rain
9:38 AM 46.4 °F 44.3 °F 46.4 °F 100% 29.84 in 2.0 mi West 4.6 mph - 0.01 in   Overcast
9:48 AM 46.4 °F 45.2 °F 46.4 °F 100% 29.84 in 1.5 mi West 3.5 mph - 0.02 in Rain Light Rain
9:53 AM 46.9 °F - 46.0 °F 97% 29.85 in 1.2 mi West 3.5 mph - 0.02 in Rain Light Rain
10:12 AM 46.4 °F 44.3 °F 46.4 °F 100% 29.84 in 1.5 mi WSW 4.6 mph - 0.00 in   Overcast
10:26 AM 46.4 °F - 46.4 °F 100% 29.84 in 2.0 mi Calm Calm - 0.00 in   Overcast
10:41 AM 46.4 °F - 46.4 °F 100% 29.84 in 4.0 mi Calm Calm - 0.00 in   Overcast
10:53 AM 46.9 °F - 46.0 °F 97% 29.85 in 4.0 mi Variable 3.5 mph - 0.00 in   Overcast
11:44 AM 48.2 °F - 46.4 °F 93% 29.85 in 9.0 mi WSW 6.9 mph - N/A   Overcast
11:53 AM 48.9 °F - 46.9 °F 93% 29.85 in 9.0 mi WSW 5.8 mph - N/A   Overcast
12:03 PM 50.0 °F - 46.4 °F 87% 29.85 in 10.0 mi SW 5.8 mph - N/A   Overcast
12:53 PM 51.1 °F - 46.9 °F 86% 29.85 in 9.0 mi West 5.8 mph - N/A   Overcast
1:53 PM 51.1 °F - 45.0 °F 80% 29.84 in 10.0 mi West 9.2 mph - N/A   Overcast
2:53 PM 53.1 °F - 46.9 °F 80% 29.83 in 9.0 mi WSW 4.6 mph 16.1 mph N/A   Overcast
3:53 PM 57.9 °F - 45.0 °F 62% 29.81 in 10.0 mi WSW 6.9 mph 16.1 mph N/A   Scattered Clouds
4:53 PM 57.9 °F - 42.1 °F 56% 29.81 in 10.0 mi SW 11.5 mph 19.6 mph N/A   Scattered Clouds
5:53 PM 59.0 °F - 39.9 °F 49% 29.80 in 10.0 mi WSW 9.2 mph 17.3 mph N/A   Scattered Clouds
6:53 PM 57.9 °F - 39.0 °F 49% 29.81 in 10.0 mi WSW 11.5 mph 18.4 mph N/A   Clear
7:53 PM 55.0 °F - 39.0 °F 55% 29.81 in 10.0 mi SW 5.8 mph - N/A   Clear
8:53 PM 53.1 °F - 39.0 °F 59% 29.80 in 10.0 mi SSW 3.5 mph - N/A   Clear
9:53 PM 50.0 °F - 39.0 °F 66% 29.82 in 10.0 mi West 3.5 mph - N/A   Scattered Clouds
10:53 PM 53.1 °F - 41.0 °F 64% 29.84 in 10.0 mi WNW 15.0 mph 23.0 mph N/A   Overcast
11:53 PM 48.0 °F - 39.9 °F 74% 29.82 in 10.0 mi WSW 3.5 mph - N/A   Clear